Flag for U.S.A. Weather past 2 weeks in San Bernardino, California, U.S.A.

Now
49 °F

Fog.


Feels Like: 48 °F
Forecast: 49 / 73 °F
Wind: 3 mph from Southeast

Location: Riverside Municipal Airport

Current Time: Dec 22, 2014 at 2:52:16 AM

Latest Report: Dec 22, 2014 at 1:53 AM


Visibility: 4 mi

Pressure: 30.02 "Hg

Humidity: 90%

Dew point: 46 °F

Location of San BernardinoLocation

Historic Weather in San Bernardino — Graph

°F

San Bernardino temperature yesterday

Maximum temperature yesterday: 66 °F (at 2:53 PM)
Minimum temperature yesterday: 44 °F (at 5:53 AM)
Average temperature yesterday: 54 °F

Past Weeks' High & Low Weather Summary

 TemperatureHumidityPressure
High80 °F (Dec 9, 2:53 PM)100% (Dec 11, 6:53 AM)30.22 "Hg (Dec 11, 6:53 AM)
Low42 °F (Dec 14, 6:53 AM)20% (Dec 9, 2:53 PM)29.82 "Hg (Dec 12, 4:53 AM)
Average56 °F71%30.04 "Hg
* Reported Dec 7 12:53 AM — Dec 22 12:53 AM, San Bernardino, Weather by CustomWeather, © 2014

Note: Actual official high and low records may vary slightly from our data, if they occured in-between our weather recording intervals... More about our weather records

Advertising

San Bernardino weather history for previous 24 hours

 ConditionsComfort  
Time TempWeatherWind HumidityBarometerVisibility
12:53 AM
Dec 22
50 °FFog.No wind86%30.02 "Hg5 mi
11:53 PM
Dec 21
53 °FClear.5 mph83%30.02 "Hg6 mi
10:53 PM54 °FClear.No wind80%30.03 "Hg7 mi
9:53 PM56 °FClear.5 mph77%30.03 "Hg7 mi
8:53 PM56 °FClear.No wind77%30.04 "Hg7 mi
7:53 PM56 °FClear.No wind77%30.03 "Hg7 mi
6:53 PM58 °FClear.3 mph72%30.04 "Hg8 mi
5:53 PM61 °FClear.No wind65%30.02 "Hg8 mi
4:53 PM62 °FClear.No wind62%30.02 "Hg5 mi
3:53 PM64 °FSunny.3 mph58%30.02 "Hg7 mi
2:53 PM66 °FSunny.No wind52%30.01 "Hg9 mi
1:53 PM65 °FSunny.No wind56%30.02 "Hg9 mi
12:53 PM64 °FSunny.No wind58%30.05 "Hg9 mi
11:53 AM60 °FSunny.No wind67%30.08 "Hg7 mi
10:53 AM59 °FSunny.No wind69%30.11 "Hg7 mi
9:53 AM55 °FSunny.3 mph77%30.13 "Hg5 mi
8:53 AM50 °FFog.5 mph86%30.14 "Hg3 mi
8:00 AM47 °FFog.5 mph90%30.16 "Hg2 mi
6:59 AM44 °FFog.3 mph93%30.14 "Hg2 mi
6:03 AM45 °FFog.No wind93%30.14 "Hg3 mi
5:53 AM44 °FFog.No wind93%30.11 "Hg2 mi
4:53 AM46 °FFog.6 mph93%30.10 "Hg3 mi
3:53 AM47 °FFog.3 mph90%30.09 "Hg4 mi
2:53 AM48 °FFog.6 mph89%30.11 "Hg4 mi
Weather by CustomWeather, © 2014

See weather overviewHow to use our weather pages